THORAD AGENA D DEB, 5146

Orbit data source: Space-Track

THORAD AGENA D DEB, 5146 is space debris in SSO originally from a launch on Wed, 08 Apr 1970 UTC launched from the Air Force Western Test Range (AFWTR). Debris objects in space refer to the collection of defunct objects orbiting the Earth. Examples of debris include non-operational satellites, rocket bodies, and fragments generated from explosions, collisions, or faulty payload assembly.

Loading next visibility...
Identifier
5146, 1970-025JQ
Orbit
SSO
Country
Flag of USUS
Related business
Manufacturer
Unknown
Mission
Spacecraft
Bus & Motor
Unknown
Mass
Unknown
Launch date (UTC)
1970-04-08 (56 years ago)
Launch vehicle
Unknown
Launch site
Air Force Western Test Range (AFWTR)
Object type
Payload
Rocket body
Debris
Shape & HBR
Unknown shape, 0.1 m
Radar Cross Section
Small (<0.1 m²)

Expand to show TLE details & history
Last TLE update: 4 days ago

TLE from 4 days ago
0 THORAD AGENA D DEB
1  5146U 70025JQ  25289.40461984  .00000117  00000-0  21012-3 0  9990
2  5146 100.0615 141.5430 0042492 269.2920 215.3136 13.62683509756103
Epoch: 2025-10-16T09:42Z
TLE epoch observation values (Epoch: 2025-10-16T09:42:39.154Z)
Latitude
54.50298°
Longitude
165.04474°
Altitude
1,060.567 km
Speed
7.314 km/s
True Right ascension
22h 23m 29s
True Declination
54° 20' 49"
Sunlit
Object was in full shadow at epoch
Visualization orbit readout
Latitude
Unknown
Longitude
Unknown
Altitude
Unknown
Speed
Unknown
Apparent Right ascension
Unknown
Apparent Declination
Unknown
Sunlit
N/A
Visualization observer readout
Local Sidereal Time
21:38:58
Azimuth
Unknown
Elevation
Unknown
Doppler factor
Unknown
Orbital elements
Apogee altitude
1,054.709 km
Perigee altitude
991.809 km
Semi-major axis
7,401.396 km
Eccentricity
0.00425
Inclination
100.0615°
RAAN
141.543°
Arg. of periapsis
269.292°
True anomaly
215.03335°
Mean anomaly
215.3136°
Eccentric anomaly
215.17335°
Mean motion
3.40857 °/min
Orbital period
105.62 mins
BSTAR
0.00021012
Loading maneuver chart data...
Computing Atmospheric mass density...

Documentation

Showing up to 5 results
|